TimeCDT,TemperatureF,Dew PointF,Humidity,Sea Level PressureIn,VisibilityMPH,Wind Direction,Wind SpeedMPH,Gust SpeedMPH,PrecipitationIn,Events,Conditions,WindDirDegrees,DateUTC
12:15 AM,68.0,50.0,52,30.08,10.0,NE,5.8,-,N/A,,Clear,40,2013-08-22 05:15:00
12:35 AM,68.0,50.0,52,30.08,10.0,NNE,8.1,-,N/A,,Clear,20,2013-08-22 05:35:00
12:55 AM,68.0,50.0,52,30.08,10.0,NNE,10.4,-,N/A,,Clear,20,2013-08-22 05:55:00
1:15 AM,66.2,48.2,52,30.10,10.0,NNE,6.9,-,N/A,,Clear,20,2013-08-22 06:15:00
1:35 AM,64.4,50.0,59,30.11,10.0,NNE,6.9,-,N/A,,Clear,20,2013-08-22 06:35:00
1:55 AM,64.4,50.0,59,30.11,10.0,North,5.8,-,N/A,,Clear,10,2013-08-22 06:55:00
2:15 AM,64.4,48.2,56,30.12,10.0,NNE,6.9,-,N/A,,Clear,20,2013-08-22 07:15:00
2:35 AM,62.6,48.2,59,30.12,10.0,NNE,6.9,-,N/A,,Clear,20,2013-08-22 07:35:00
2:55 AM,62.6,46.4,55,30.13,10.0,NNE,5.8,-,N/A,,Clear,30,2013-08-22 07:55:00
3:15 AM,62.6,46.4,55,30.14,10.0,NNE,5.8,-,N/A,,Scattered Clouds,30,2013-08-22 08:15:00
3:35 AM,62.6,46.4,55,30.14,10.0,NNE,4.6,-,N/A,,Mostly Cloudy,30,2013-08-22 08:35:00
3:55 AM,62.6,46.4,55,30.14,10.0,NNE,4.6,-,N/A,,Scattered Clouds,20,2013-08-22 08:55:00
4:15 AM,60.8,46.4,59,30.15,10.0,NNE,4.6,-,N/A,,Scattered Clouds,30,2013-08-22 09:15:00
4:35 AM,60.8,44.6,55,30.15,10.0,NNE,5.8,-,N/A,,Clear,20,2013-08-22 09:35:00
4:55 AM,60.8,46.4,59,30.15,10.0,NE,5.8,-,N/A,,Scattered Clouds,40,2013-08-22 09:55:00
5:15 AM,60.8,44.6,55,30.15,10.0,NNE,5.8,-,N/A,,Clear,30,2013-08-22 10:15:00
5:35 AM,60.8,44.6,55,30.15,10.0,NE,4.6,-,N/A,,Clear,40,2013-08-22 10:35:00
5:55 AM,59.0,44.6,59,30.16,10.0,NNE,6.9,-,N/A,,Clear,20,2013-08-22 10:55:00
6:15 AM,59.0,46.4,63,30.16,10.0,NNE,6.9,-,N/A,,Clear,20,2013-08-22 11:15:00
6:35 AM,59.0,44.6,59,30.16,10.0,NNE,6.9,-,N/A,,Clear,30,2013-08-22 11:35:00
6:55 AM,59.0,46.4,63,30.16,10.0,NNE,5.8,-,N/A,,Clear,20,2013-08-22 11:55:00
7:15 AM,59.0,46.4,63,30.17,10.0,NNE,5.8,-,N/A,,Clear,20,2013-08-22 12:15:00
7:35 AM,60.8,46.4,59,30.17,10.0,NNE,4.6,-,N/A,,Clear,20,2013-08-22 12:35:00
7:55 AM,62.6,46.4,55,30.18,10.0,North,5.8,-,N/A,,Clear,10,2013-08-22 12:55:00
8:15 AM,62.6,48.2,59,30.18,10.0,NNE,5.8,-,N/A,,Clear,20,2013-08-22 13:15:00
8:35 AM,64.4,48.2,56,30.18,10.0,North,6.9,-,N/A,,Clear,10,2013-08-22 13:35:00
8:55 AM,66.2,48.2,52,30.19,10.0,NNE,5.8,-,N/A,,Clear,30,2013-08-22 13:55:00
9:15 AM,68.0,48.2,49,30.19,10.0,NNE,4.6,-,N/A,,Clear,20,2013-08-22 14:15:00
9:35 AM,68.0,50.0,52,30.19,10.0,NNE,3.5,-,N/A,,Clear,20,2013-08-22 14:35:00
9:55 AM,69.8,50.0,49,30.19,10.0,North,5.8,-,N/A,,Clear,360,2013-08-22 14:55:00
10:15 AM,71.6,46.4,41,30.19,10.0,NNE,8.1,-,N/A,,Clear,30,2013-08-22 15:15:00
10:35 AM,73.4,46.4,38,30.19,10.0,NNE,6.9,-,N/A,,Clear,20,2013-08-22 15:35:00
10:55 AM,73.4,44.6,36,30.20,10.0,East,5.8,-,N/A,,Clear,90,2013-08-22 15:55:00
11:15 AM,75.2,44.6,34,30.20,10.0,NE,5.8,-,N/A,,Clear,40,2013-08-22 16:15:00
11:35 AM,77.0,41.0,28,30.19,10.0,NNE,4.6,-,N/A,,Clear,30,2013-08-22 16:35:00
11:55 AM,77.0,42.8,29,30.19,10.0,North,6.9,-,N/A,,Clear,10,2013-08-22 16:55:00
12:15 PM,77.0,41.0,28,30.19,10.0,North,8.1,-,N/A,,Clear,10,2013-08-22 17:15:00
12:35 PM,77.0,41.0,28,30.18,10.0,NE,6.9,-,N/A,,Clear,50,2013-08-22 17:35:00
12:55 PM,78.8,41.0,26,30.18,10.0,North,5.8,-,N/A,,Clear,360,2013-08-22 17:55:00
1:15 PM,78.8,42.8,28,30.17,10.0,North,6.9,-,N/A,,Clear,360,2013-08-22 18:15:00
1:35 PM,78.8,41.0,26,30.16,10.0,North,9.2,-,N/A,,Clear,350,2013-08-22 18:35:00
1:55 PM,78.8,39.2,24,30.16,10.0,North,9.2,-,N/A,,Clear,10,2013-08-22 18:55:00
2:15 PM,78.8,37.4,23,30.16,10.0,NNE,4.6,-,N/A,,Clear,20,2013-08-22 19:15:00
2:35 PM,80.6,37.4,21,30.16,10.0,NNE,9.2,-,N/A,,Clear,20,2013-08-22 19:35:00
2:55 PM,80.6,37.4,21,30.16,10.0,North,8.1,-,N/A,,Clear,360,2013-08-22 19:55:00
3:15 PM,78.8,37.4,23,30.16,10.0,North,6.9,-,N/A,,Clear,350,2013-08-22 20:15:00
3:35 PM,80.6,37.4,21,30.15,10.0,NNE,6.9,-,N/A,,Clear,20,2013-08-22 20:35:00
3:55 PM,80.6,37.4,21,30.15,10.0,North,9.2,-,N/A,,Clear,360,2013-08-22 20:55:00
4:15 PM,80.6,37.4,21,30.14,10.0,NNW,8.1,-,N/A,,Clear,340,2013-08-22 21:15:00
4:35 PM,80.6,35.6,20,30.14,10.0,NNE,10.4,-,N/A,,Clear,20,2013-08-22 21:35:00
4:55 PM,80.6,37.4,21,30.14,10.0,NNE,8.1,-,N/A,,Clear,20,2013-08-22 21:55:00
5:15 PM,80.6,35.6,20,30.13,10.0,North,9.2,-,N/A,,Clear,360,2013-08-22 22:15:00
5:35 PM,78.8,35.6,21,30.13,10.0,North,8.1,-,N/A,,Clear,10,2013-08-22 22:35:00
5:55 PM,80.6,33.8,18,30.12,10.0,NNE,10.4,-,N/A,,Clear,20,2013-08-22 22:55:00
6:15 PM,78.8,32.0,18,30.12,10.0,NNE,6.9,-,N/A,,Clear,20,2013-08-22 23:15:00
6:35 PM,78.8,32.0,18,30.12,10.0,North,5.8,-,N/A,,Clear,10,2013-08-22 23:35:00
6:55 PM,77.0,33.8,21,30.12,10.0,NNE,5.8,-,N/A,,Clear,30,2013-08-22 23:55:00
7:15 PM,77.0,37.4,24,30.12,10.0,North,5.8,-,N/A,,Clear,10,2013-08-23 00:15:00
7:35 PM,75.2,39.2,27,30.12,10.0,North,5.8,-,N/A,,Clear,10,2013-08-23 00:35:00
7:55 PM,73.4,41.0,31,30.12,10.0,NNE,4.6,-,N/A,,Clear,20,2013-08-23 00:55:00
8:15 PM,71.6,41.0,33,30.12,10.0,North,4.6,-,N/A,,Clear,10,2013-08-23 01:15:00
8:35 PM,69.8,41.0,35,30.12,10.0,NNE,4.6,-,N/A,,Clear,20,2013-08-23 01:35:00
8:55 PM,68.0,42.8,40,30.13,10.0,NNE,4.6,-,N/A,,Clear,20,2013-08-23 01:55:00
9:15 PM,68.0,42.8,40,30.13,10.0,NNE,4.6,-,N/A,,Clear,30,2013-08-23 02:15:00
9:35 PM,68.0,42.8,40,30.13,10.0,NNE,4.6,-,N/A,,Clear,30,2013-08-23 02:35:00
9:55 PM,66.2,41.0,40,30.13,10.0,NE,5.8,-,N/A,,Clear,40,2013-08-23 02:55:00
10:15 PM,66.2,41.0,40,30.13,10.0,NNE,6.9,-,N/A,,Clear,30,2013-08-23 03:15:00
10:35 PM,66.2,42.8,43,30.13,10.0,NE,3.5,-,N/A,,Clear,50,2013-08-23 03:35:00
10:55 PM,64.4,44.6,49,30.13,10.0,ENE,5.8,-,N/A,,Clear,60,2013-08-23 03:55:00
11:15 PM,62.6,42.8,48,30.13,10.0,NE,3.5,-,N/A,,Clear,50,2013-08-23 04:15:00
11:35 PM,60.8,42.8,52,30.14,10.0,ENE,3.5,-,N/A,,Clear,70,2013-08-23 04:35:00
11:55 PM,60.8,50.0,68,30.13,10.0,East,3.5,-,N/A,,Clear,80,2013-08-23 04:55:00